Home > Time Zones > World Clock > Weather > Cuba > Havana > Past weeks

Flag Weather past 2 weeks in Havana, Cuba

Now
82 °F

Passing clouds.


Feels Like: 86 °F
Forecast: N/A
Wind: 9 mph from South

Location: Aeropuerto Jose Marti - Rancho-Boyeros - Habana

Current Time: Nov 23, 2014 at 5:38:34 PM

Latest Report: Nov 23, 2014 at 4:55 PM


Visibility: N/A

Pressure: 29.89 "Hg

Humidity: 66%

Dew point: 70 °F

Location of HavanaLocation

Historic Weather in Havana — Graph

°F

Havana temperature yesterday

Maximum temperature yesterday: 86 °F (at 12:55 PM)
Minimum temperature yesterday: 70 °F (at 12:55 AM)
Average temperature yesterday: 76 °F

Past Weeks' High & Low Weather Summary

 TemperatureHumidityPressure
High86 °F (Nov 16, 1:55 PM)100% (Nov 17, 4:55 AM)30.18 "Hg (Nov 17, 4:55 AM)
Low32 °F (Nov 17, 4:55 AM)43% (Nov 8, 3:55 PM)29.83 "Hg (Nov 9, 1:55 PM)
Average73 °F77%30.02 "Hg
* Reported Nov 8 3:55 PM — Nov 23 3:55 PM, Havana, Weather by CustomWeather, © 2014

Note: Actual official high and low records may vary slightly from our data, if they occured in-between our weather recording intervals... More about our weather records

Advertising

Havana weather history for previous 24 hours

 ConditionsComfort  
Time TempWeatherWind HumidityBarometerVisibility
3:55 PM
Nov 23
84 °FScattered clouds.10 mph62%29.89 "HgN/A
2:55 PM84 °FPartly sunny.10 mph62%29.89 "HgN/A
1:55 PM86 °FPartly sunny.9 mph59%29.89 "HgN/A
12:55 PM84 °FPartly sunny.9 mph62%29.95 "HgN/A
11:55 AM84 °FPartly sunny.12 mph62%29.98 "HgN/A
10:55 AM82 °FScattered clouds.14 mph66%30.01 "HgN/A
9:55 AM81 °FPassing clouds.12 mph70%30.01 "HgN/A
8:55 AM79 °FPassing clouds.9 mph74%30.01 "HgN/A
7:55 AM75 °FPassing clouds.3 mph78%29.98 "HgN/A
6:55 AM73 °FPassing clouds.3 mph83%29.98 "Hg6 mi
5:55 AM73 °FPassing clouds.6 mph83%29.98 "Hg6 mi
4:55 AM73 °FPassing clouds.5 mph83%29.98 "Hg6 mi
3:55 AM73 °FPassing clouds.7 mph83%29.98 "Hg6 mi
1:55 AM75 °FPassing clouds.7 mph78%29.98 "Hg6 mi
12:55 AM75 °FPassing clouds.5 mph83%30.01 "Hg6 mi
11:55 PM
Nov 22
73 °FPassing clouds.3 mph89%30.04 "Hg6 mi
10:55 PM73 °FPassing clouds.2 mph89%30.04 "Hg5 mi
9:55 PM75 °FPassing clouds.3 mph83%30.04 "Hg5 mi
8:55 PM73 °FPassing clouds.10 mph89%30.04 "Hg6 mi
7:55 PM73 °FPassing clouds.3 mph89%30.01 "Hg6 mi
6:55 PM75 °FThunderstorms. Passing clouds.6 mph89%30.01 "Hg5 mi
5:55 PM75 °FLight rain. Passing clouds.2 mph83%29.98 "Hg4 mi
Weather by CustomWeather, © 2014

See weather overviewHow to use our weather pages